Time,TemperatureF,DewpointF,PressureIn,WindDirection,WindDirectionDegrees,WindSpeedMPH,WindSpeedGustMPH,Humidity,HourlyPrecipIn,Conditions,Clouds,dailyrainin,SoftwareType,DateUTC
2013-06-26 00:01:00,73.6,63.9,29.76,SW,225,3.8,5.6,72,0.00,,---,0.00,VWS V14.01,2013-06-26 04:01:00,
2013-06-26 00:06:00,74.8,65.0,29.76,WSW,243,1.3,1.3,72,0.00,,---,0.00,VWS V14.01,2013-06-26 04:06:00,
2013-06-26 00:09:00,75.9,66.4,29.74,West,263,1.9,6.0,72,0.00,,---,0.00,VWS V14.01,2013-06-26 04:09:00,
2013-06-26 00:11:00,74.4,64.7,29.76,SW,218,5.9,6.8,72,0.00,,---,0.00,VWS V14.01,2013-06-26 04:11:00,
2013-06-26 00:16:00,75.0,65.4,29.76,SW,215,7.3,8.4,72,0.00,,---,0.00,VWS V14.01,2013-06-26 04:16:00,
2013-06-26 00:21:00,74.9,65.3,29.76,South,177,2.4,8.3,72,0.00,,---,0.00,VWS V14.01,2013-06-26 04:21:00,
2013-06-26 00:26:00,74.7,65.2,29.76,WSW,239,6.2,9.6,72,0.00,,---,0.00,VWS V14.01,2013-06-26 04:26:00,
2013-06-26 00:31:00,75.2,65.7,29.75,SW,235,5.3,7.0,72,0.00,,---,0.00,VWS V14.01,2013-06-26 04:31:00,
2013-06-26 00:36:00,75.3,65.8,29.75,WNW,285,9.1,9.1,72,0.00,,---,0.00,VWS V14.01,2013-06-26 04:36:00,
2013-06-26 00:41:00,76.0,66.5,29.75,SW,232,3.5,6.3,72,0.00,,---,0.00,VWS V14.01,2013-06-26 04:41:00,
2013-06-26 00:46:00,75.3,65.9,29.74,SSW,204,5.3,7.1,73,0.00,,---,0.00,VWS V14.01,2013-06-26 04:46:00,
2013-06-26 00:51:00,75.2,65.9,29.74,SW,228,6.8,8.6,73,0.00,,---,0.00,VWS V14.01,2013-06-26 04:51:00,
2013-06-26 00:56:00,75.8,66.7,29.74,WSW,248,1.9,6.5,73,0.00,,---,0.00,VWS V14.01,2013-06-26 04:56:00,
2013-06-26 01:01:00,74.9,66.0,29.74,SW,235,4.4,6.6,74,0.00,,---,0.00,VWS V14.01,2013-06-26 05:01:00,
2013-06-26 01:06:00,75.8,67.1,29.74,WSW,248,5.8,6.8,74,0.00,,---,0.00,VWS V14.01,2013-06-26 05:06:00,
2013-06-26 01:11:00,74.9,66.4,29.74,North,356,0.6,3.8,75,0.00,,---,0.00,VWS V14.01,2013-06-26 05:11:00,
2013-06-26 01:16:00,74.6,66.2,29.75,ESE,122,2.7,11.3,75,0.00,,---,0.00,VWS V14.01,2013-06-26 05:16:00,
2013-06-26 01:21:00,75.4,67.1,29.74,WNW,288,5.3,11.3,75,0.00,,---,0.00,VWS V14.01,2013-06-26 05:21:00,
2013-06-26 01:26:00,75.8,67.2,29.74,SW,217,3.5,11.8,75,0.00,,---,0.00,VWS V14.01,2013-06-26 05:26:00,
2013-06-26 01:31:00,75.0,65.6,29.74,WNW,295,7.0,14.9,73,0.00,,---,0.00,VWS V14.01,2013-06-26 05:31:00,
2013-06-26 01:36:00,75.1,65.2,29.74,West,270,7.1,15.1,71,0.00,,---,0.00,VWS V14.01,2013-06-26 05:36:00,
2013-06-26 01:41:00,75.2,65.0,29.73,East,101,1.5,15.1,70,0.00,,---,0.00,VWS V14.01,2013-06-26 05:41:00,
2013-06-26 01:46:00,74.6,63.9,29.73,WNW,284,8.3,15.1,69,0.00,,---,0.00,VWS V14.01,2013-06-26 05:46:00,
2013-06-26 01:51:00,75.0,64.1,29.73,WSW,238,7.8,15.1,69,0.00,,---,0.00,VWS V14.01,2013-06-26 05:51:00,
2013-06-26 01:56:00,75.3,64.5,29.73,West,273,4.8,15.1,69,0.00,,---,0.00,VWS V14.01,2013-06-26 05:56:00,
2013-06-26 02:01:00,75.0,64.3,29.73,SSW,208,4.2,15.1,69,0.00,,---,0.00,VWS V14.01,2013-06-26 06:01:00,
2013-06-26 02:06:00,74.8,64.2,29.73,WNW,287,2.1,15.1,70,0.00,,---,0.00,VWS V14.01,2013-06-26 06:06:00,
2013-06-26 02:10:00,75.0,64.5,29.74,WNW,297,5.2,15.1,70,0.00,,---,0.00,VWS V14.01,2013-06-26 06:10:00,
2013-06-26 02:15:00,73.8,63.3,29.74,WNW,288,9.4,15.1,70,0.00,,---,0.00,VWS V14.01,2013-06-26 06:15:00,
2013-06-26 02:20:00,74.6,64.1,29.75,West,259,5.8,15.1,70,0.00,,---,0.00,VWS V14.01,2013-06-26 06:20:00,
2013-06-26 02:25:00,74.4,63.6,29.75,WNW,298,4.2,15.1,69,0.00,,---,0.00,VWS V14.01,2013-06-26 06:25:00,
2013-06-26 02:30:00,73.7,62.9,29.75,WSW,252,7.1,132.1,69,0.00,,---,0.00,VWS V14.01,2013-06-26 06:30:00,
2013-06-26 02:35:00,74.0,63.0,29.75,WNW,298,8.3,132.1,69,0.00,,---,0.00,VWS V14.01,2013-06-26 06:35:00,
2013-06-26 02:40:00,73.6,62.8,29.75,NW,311,6.0,132.1,69,0.00,,---,0.00,VWS V14.01,2013-06-26 06:40:00,
2013-06-26 02:45:00,74.0,63.4,29.75,West,264,6.7,132.1,69,0.00,,---,0.00,VWS V14.01,2013-06-26 06:45:00,
2013-06-26 02:50:00,72.8,62.4,29.75,NW,307,5.3,132.1,70,0.00,,---,0.00,VWS V14.01,2013-06-26 06:50:00,
2013-06-26 02:55:00,71.8,61.5,29.75,North,8,2.5,132.1,70,0.00,,---,0.00,VWS V14.01,2013-06-26 06:55:00,
2013-06-26 03:00:00,72.1,62.0,29.75,West,259,5.3,132.1,71,0.00,,---,0.00,VWS V14.01,2013-06-26 07:00:00,
2013-06-26 03:05:00,71.0,61.1,29.75,WNW,302,8.4,132.1,71,0.00,,---,0.00,VWS V14.01,2013-06-26 07:05:00,
2013-06-26 03:10:00,72.3,62.5,29.75,West,276,8.3,132.1,71,0.00,,---,0.00,VWS V14.01,2013-06-26 07:10:00,
2013-06-26 03:15:00,72.5,62.6,29.75,West,263,1.4,132.1,71,0.00,,---,0.00,VWS V14.01,2013-06-26 07:15:00,
2013-06-26 03:20:00,71.9,62.1,29.75,NW,325,8.1,132.1,71,0.00,,---,0.00,VWS V14.01,2013-06-26 07:20:00,
2013-06-26 03:25:00,71.4,61.6,29.75,WNW,302,11.6,132.1,71,0.00,,---,0.00,VWS V14.01,2013-06-26 07:25:00,
2013-06-26 03:30:00,71.7,61.8,29.75,WNW,287,9.1,132.1,71,0.00,,---,0.00,VWS V14.01,2013-06-26 07:30:00,
2013-06-26 03:35:00,71.5,61.7,29.75,WSW,253,3.7,132.1,71,0.00,,---,0.00,VWS V14.01,2013-06-26 07:35:00,
2013-06-26 03:40:00,71.7,61.9,29.76,West,280,7.2,132.1,71,0.00,,---,0.00,VWS V14.01,2013-06-26 07:40:00,
2013-06-26 03:45:00,70.9,61.0,29.75,North,359,3.3,132.1,71,0.00,,---,0.00,VWS V14.01,2013-06-26 07:45:00,
2013-06-26 03:50:00,70.6,60.5,29.76,West,270,5.0,132.1,70,0.00,,---,0.00,VWS V14.01,2013-06-26 07:50:00,
2013-06-26 03:55:00,70.8,60.7,29.76,West,269,10.6,132.1,70,0.00,,---,0.00,VWS V14.01,2013-06-26 07:55:00,
2013-06-26 04:00:00,71.3,61.1,29.76,NW,312,1.9,132.1,70,0.00,,---,0.00,VWS V14.01,2013-06-26 08:00:00,
2013-06-26 04:05:00,71.0,60.8,29.76,WNW,300,7.9,132.1,70,0.00,,---,0.00,VWS V14.01,2013-06-26 08:05:00,
2013-06-26 04:10:00,70.6,60.5,29.76,NW,311,5.0,132.1,70,0.00,,---,0.00,VWS V14.01,2013-06-26 08:10:00,
2013-06-26 04:15:00,71.0,61.0,29.76,WNW,292,4.1,132.1,71,0.00,,---,0.00,VWS V14.01,2013-06-26 08:15:00,
2013-06-26 04:20:00,70.8,60.9,29.75,WNW,283,3.4,132.1,71,0.00,,---,0.00,VWS V14.01,2013-06-26 08:20:00,
2013-06-26 04:25:00,70.4,60.6,29.75,WNW,287,3.3,132.1,71,0.00,,---,0.00,VWS V14.01,2013-06-26 08:25:00,
2013-06-26 04:30:00,70.6,60.8,29.75,WNW,284,4.5,132.1,71,0.00,,---,0.00,VWS V14.01,2013-06-26 08:30:00,
2013-06-26 04:35:00,70.5,60.7,29.76,WSW,255,5.0,132.1,71,0.00,,---,0.00,VWS V14.01,2013-06-26 08:35:00,
2013-06-26 04:40:00,70.2,60.4,29.76,NW,315,3.6,132.1,71,0.00,,---,0.00,VWS V14.01,2013-06-26 08:40:00,
2013-06-26 04:45:00,70.6,60.8,29.76,NW,314,6.0,132.1,71,0.00,,---,0.00,VWS V14.01,2013-06-26 08:45:00,
2013-06-26 04:50:00,71.3,61.5,29.76,WNW,291,7.4,132.1,71,0.00,,---,0.00,VWS V14.01,2013-06-26 08:50:00,
2013-06-26 04:55:00,69.7,59.9,29.76,West,263,5.8,132.1,71,0.00,,---,0.00,VWS V14.01,2013-06-26 08:55:00,
2013-06-26 05:00:00,70.3,60.5,29.77,West,270,7.8,132.1,71,0.00,,---,0.00,VWS V14.01,2013-06-26 09:00:00,
2013-06-26 05:05:00,70.2,60.5,29.77,WSW,246,9.7,132.1,71,0.00,,---,0.00,VWS V14.01,2013-06-26 09:05:00,
2013-06-26 05:10:00,69.8,60.1,29.77,WNW,297,7.0,132.1,71,0.00,,---,0.00,VWS V14.01,2013-06-26 09:10:00,
2013-06-26 05:15:00,70.0,60.2,29.77,WSW,255,2.9,132.1,71,0.00,,---,0.00,VWS V14.01,2013-06-26 09:15:00,
2013-06-26 05:20:00,69.2,59.4,29.77,WNW,297,9.2,132.1,71,0.00,,---,0.00,VWS V14.01,2013-06-26 09:20:00,
2013-06-26 05:25:00,70.0,60.1,29.77,West,273,3.9,132.1,71,0.00,,---,0.00,VWS V14.01,2013-06-26 09:25:00,
2013-06-26 05:30:00,70.1,60.3,29.77,SE,132,5.1,132.1,71,0.00,,---,0.00,VWS V14.01,2013-06-26 09:30:00,
2013-06-26 05:35:00,70.3,60.5,29.77,NW,311,4.4,132.1,71,0.00,,---,0.00,VWS V14.01,2013-06-26 09:35:00,
2013-06-26 05:40:00,68.6,58.9,29.77,ESE,117,0.0,132.1,71,0.00,,---,0.00,VWS V14.01,2013-06-26 09:40:00,
2013-06-26 05:45:00,70.2,60.5,29.77,SE,124,4.0,132.1,71,0.00,,---,0.00,VWS V14.01,2013-06-26 09:45:00,
2013-06-26 05:50:00,69.4,59.7,29.77,NE,48,0.0,132.1,71,0.00,,---,0.00,VWS V14.01,2013-06-26 09:50:00,
2013-06-26 05:55:00,69.5,60.0,29.78,WNW,284,6.5,132.1,72,0.00,,---,0.00,VWS V14.01,2013-06-26 09:55:00,
2013-06-26 06:00:00,69.4,60.0,29.78,West,259,5.1,132.1,72,0.00,,---,0.00,VWS V14.01,2013-06-26 10:00:00,
2013-06-26 06:05:00,70.1,60.9,29.78,WNW,288,5.5,132.1,72,0.00,,---,0.00,VWS V14.01,2013-06-26 10:05:00,
2013-06-26 06:10:00,69.6,60.5,29.78,WNW,291,0.8,132.1,73,0.00,,---,0.00,VWS V14.01,2013-06-26 10:10:00,
2013-06-26 06:15:00,70.2,61.2,29.78,North,359,0.5,132.1,73,0.00,,---,0.00,VWS V14.01,2013-06-26 10:15:00,
2013-06-26 06:20:00,69.5,60.6,29.78,WNW,290,0.5,132.1,73,0.00,,---,0.00,VWS V14.01,2013-06-26 10:20:00,
2013-06-26 06:25:00,69.4,60.5,29.79,NNW,336,1.7,132.1,73,0.00,,---,0.00,VWS V14.01,2013-06-26 10:25:00,
2013-06-26 06:30:00,70.3,61.4,29.79,SSW,208,1.7,132.1,73,0.00,,---,0.00,VWS V14.01,2013-06-26 10:30:00,
2013-06-26 06:35:00,69.6,60.7,29.79,West,281,1.8,132.1,73,0.00,,---,0.00,VWS V14.01,2013-06-26 10:35:00,
2013-06-26 06:40:00,70.3,61.5,29.79,NW,307,2.2,132.1,74,0.00,,---,0.00,VWS V14.01,2013-06-26 10:40:00,
2013-06-26 06:45:00,70.1,61.5,29.79,WNW,300,2.8,132.1,74,0.00,,---,0.00,VWS V14.01,2013-06-26 10:45:00,
2013-06-26 06:50:00,69.9,61.4,29.79,WNW,283,3.7,132.1,74,0.00,,---,0.00,VWS V14.01,2013-06-26 10:50:00,
2013-06-26 06:55:00,70.1,61.5,29.79,West,278,7.1,132.1,74,0.00,,---,0.00,VWS V14.01,2013-06-26 10:55:00,
2013-06-26 07:00:00,70.2,61.5,29.79,West,264,3.8,132.1,74,0.00,,---,0.00,VWS V14.01,2013-06-26 11:00:00,
2013-06-26 07:05:00,70.3,61.6,29.79,NE,45,0.4,132.1,74,0.00,,---,0.00,VWS V14.01,2013-06-26 11:05:00,
2013-06-26 07:10:00,70.4,61.3,29.79,NW,308,5.0,132.1,73,0.00,,---,0.00,VWS V14.01,2013-06-26 11:10:00,
2013-06-26 07:15:00,70.9,61.0,29.79,NW,325,4.1,132.1,71,0.00,,---,0.00,VWS V14.01,2013-06-26 11:15:00,
2013-06-26 07:20:00,70.6,60.5,29.79,North,359,0.0,132.1,70,0.00,,---,0.00,VWS V14.01,2013-06-26 11:20:00,
2013-06-26 07:25:00,71.6,61.3,29.80,North,359,0.2,132.1,70,0.00,,---,0.00,VWS V14.01,2013-06-26 11:25:00,
2013-06-26 07:30:00,71.7,61.1,29.80,WNW,292,10.3,132.1,69,0.00,,---,0.00,VWS V14.01,2013-06-26 11:30:00,
2013-06-26 07:35:00,72.0,61.4,29.79,WNW,284,4.8,132.1,69,0.00,,---,0.00,VWS V14.01,2013-06-26 11:35:00,
2013-06-26 07:40:00,72.6,62.1,29.80,West,264,3.2,132.1,70,0.00,,---,0.00,VWS V14.01,2013-06-26 11:40:00,
2013-06-26 07:45:00,71.6,60.9,29.80,WNW,290,4.8,132.1,69,0.00,,---,0.00,VWS V14.01,2013-06-26 11:45:00,
2013-06-26 07:50:00,72.0,61.1,29.80,WNW,290,5.4,132.1,69,0.00,,---,0.00,VWS V14.01,2013-06-26 11:50:00,
2013-06-26 07:55:00,73.0,62.4,29.79,ENE,75,0.2,132.1,69,0.00,,---,0.00,VWS V14.01,2013-06-26 11:55:00,
2013-06-26 08:00:00,72.9,61.7,29.79,SW,231,2.5,132.1,68,0.00,,---,0.00,VWS V14.01,2013-06-26 12:00:00,
2013-06-26 08:05:00,73.4,61.8,29.79,West,259,6.7,132.1,67,0.00,,---,0.00,VWS V14.01,2013-06-26 12:05:00,
2013-06-26 08:10:00,72.9,61.6,29.79,SW,214,2.4,132.1,68,0.00,,---,0.00,VWS V14.01,2013-06-26 12:10:00,
2013-06-26 08:15:00,72.7,60.9,29.80,NW,323,9.1,132.1,66,0.00,,---,0.00,VWS V14.01,2013-06-26 12:15:00,
2013-06-26 08:20:00,73.8,62.4,29.80,North,3,2.7,132.1,68,0.00,,---,0.00,VWS V14.01,2013-06-26 12:20:00,
2013-06-26 08:25:00,73.0,61.3,29.81,WSW,255,4.9,132.1,67,0.00,,---,0.00,VWS V14.01,2013-06-26 12:25:00,
2013-06-26 08:30:00,73.6,61.5,29.80,SSE,167,8.3,132.1,66,0.00,,---,0.00,VWS V14.01,2013-06-26 12:30:00,
2013-06-26 08:35:00,73.7,61.7,29.80,WNW,297,9.0,132.1,66,0.00,,---,0.00,VWS V14.01,2013-06-26 12:35:00,
2013-06-26 08:40:00,73.6,61.6,29.80,North,359,1.9,132.1,66,0.00,,---,0.00,VWS V14.01,2013-06-26 12:40:00,
2013-06-26 08:45:00,73.5,61.6,29.81,North,359,2.1,132.1,66,0.00,,---,0.00,VWS V14.01,2013-06-26 12:45:00,
2013-06-26 08:50:00,73.6,61.3,29.80,NNE,31,0.0,132.1,65,0.00,,---,0.00,VWS V14.01,2013-06-26 12:50:00,
2013-06-26 08:55:00,74.0,61.8,29.80,NNW,329,5.7,132.1,66,0.00,,---,0.00,VWS V14.01,2013-06-26 12:55:00,
2013-06-26 09:00:00,74.8,62.2,29.80,WNW,288,5.7,132.1,65,0.00,,---,0.00,VWS V14.01,2013-06-26 13:00:00,
2013-06-26 09:05:00,74.8,62.3,29.80,NW,305,2.9,132.1,65,0.00,,---,0.00,VWS V14.01,2013-06-26 13:05:00,
2013-06-26 09:10:00,74.8,61.2,29.80,West,269,6.5,132.1,63,0.00,,---,0.00,VWS V14.01,2013-06-26 13:10:00,
2013-06-26 09:15:00,75.6,61.6,29.80,West,274,4.5,132.1,62,0.00,,---,0.00,VWS V14.01,2013-06-26 13:15:00,
2013-06-26 09:20:00,75.8,61.8,29.79,WNW,288,7.0,132.1,62,0.00,,---,0.00,VWS V14.01,2013-06-26 13:20:00,
2013-06-26 09:25:00,75.2,61.7,29.80,West,281,2.4,132.1,63,0.00,,---,0.00,VWS V14.01,2013-06-26 13:25:00,
2013-06-26 09:29:00,75.1,61.0,29.80,WSW,253,4.8,132.1,62,0.00,,---,0.00,VWS V14.01,2013-06-26 13:29:00,
2013-06-26 09:34:00,75.1,61.1,29.80,North,359,8.5,132.1,62,0.00,,---,0.00,VWS V14.01,2013-06-26 13:34:00,
2013-06-26 09:35:00,75.7,61.7,29.80,North,359,4.2,132.1,62,0.00,,---,0.00,VWS V14.01,2013-06-26 13:35:00,
2013-06-26 09:40:00,75.8,61.9,29.80,WSW,252,0.0,132.1,62,0.00,,---,0.00,VWS V14.01,2013-06-26 13:40:00,
2013-06-26 09:45:00,75.9,61.2,29.80,North,359,0.0,132.1,60,99.99,,---,0.00,VWS V14.01,2013-06-26 13:45:00,
2013-06-26 09:50:00,76.0,61.3,29.80,SW,218,1.2,132.1,60,0.00,,---,0.00,VWS V14.01,2013-06-26 13:50:00,
2013-06-26 09:55:00,77.3,62.6,29.80,WSW,242,2.9,132.1,61,0.00,,---,0.00,VWS V14.01,2013-06-26 13:55:00,
2013-06-26 10:00:00,77.0,61.5,29.80,NW,322,4.3,132.1,59,0.00,,---,0.00,VWS V14.01,2013-06-26 14:00:00,
2013-06-26 10:05:00,77.8,62.4,29.80,SSE,163,4.7,132.1,59,0.00,,---,0.00,VWS V14.01,2013-06-26 14:05:00,
2013-06-26 10:10:00,77.9,61.7,29.79,WSW,238,6.5,132.1,57,0.00,,---,0.00,VWS V14.01,2013-06-26 14:10:00,
2013-06-26 10:15:00,77.0,61.3,29.79,WNW,297,5.5,132.1,58,0.00,,---,0.00,VWS V14.01,2013-06-26 14:15:00,
2013-06-26 10:20:00,76.5,60.5,29.79,WNW,300,10.1,132.1,58,0.00,,---,0.00,VWS V14.01,2013-06-26 14:20:00,
2013-06-26 10:25:00,77.3,60.4,29.80,NNE,13,3.4,132.1,56,0.00,,---,0.00,VWS V14.01,2013-06-26 14:25:00,
2013-06-26 10:30:00,76.7,60.2,29.79,WNW,292,5.5,132.1,57,0.00,,---,0.00,VWS V14.01,2013-06-26 14:30:00,
2013-06-26 10:35:00,78.5,62.1,29.79,SW,214,3.5,132.1,57,0.00,,---,0.00,VWS V14.01,2013-06-26 14:35:00,
2013-06-26 10:40:00,78.4,61.5,29.80,WNW,298,6.8,132.1,56,0.00,,---,0.00,VWS V14.01,2013-06-26 14:40:00,
2013-06-26 10:45:00,78.0,59.5,29.79,NW,315,7.9,132.1,53,0.00,,---,0.00,VWS V14.01,2013-06-26 14:45:00,
2013-06-26 10:50:00,78.7,61.8,29.79,West,260,7.3,132.1,56,0.00,,---,0.00,VWS V14.01,2013-06-26 14:50:00,
2013-06-26 10:55:00,78.7,60.9,29.80,West,277,5.5,132.1,54,0.00,,---,0.00,VWS V14.01,2013-06-26 14:55:00,
2013-06-26 11:00:00,78.4,60.7,29.80,West,270,1.4,132.1,55,0.00,,---,0.00,VWS V14.01,2013-06-26 15:00:00,
2013-06-26 11:05:00,78.7,60.2,29.79,WNW,285,3.9,132.1,53,0.00,,---,0.00,VWS V14.01,2013-06-26 15:05:00,
2013-06-26 11:10:00,79.5,60.2,29.80,WNW,294,14.5,132.1,52,49.76,,---,0.00,VWS V14.01,2013-06-26 15:10:00,
2013-06-26 11:15:00,79.4,61.0,29.80,SW,236,4.4,132.1,53,0.00,,---,0.00,VWS V14.01,2013-06-26 15:15:00,
2013-06-26 11:20:00,79.9,59.7,29.79,NW,318,9.2,132.1,50,0.00,,---,0.00,VWS V14.01,2013-06-26 15:20:00,
2013-06-26 11:25:00,79.8,60.2,29.80,WNW,297,11.0,132.1,51,0.00,,---,0.00,VWS V14.01,2013-06-26 15:25:00,
2013-06-26 11:30:00,79.9,61.3,29.79,NW,304,3.7,132.1,53,0.00,,---,0.00,VWS V14.01,2013-06-26 15:30:00,
2013-06-26 11:35:00,80.0,60.9,29.79,West,269,5.0,132.1,52,0.00,,---,0.00,VWS V14.01,2013-06-26 15:35:00,
2013-06-26 11:40:00,80.3,62.8,29.79,SSW,211,2.1,132.1,55,0.00,,---,0.00,VWS V14.01,2013-06-26 15:40:00,
2013-06-26 11:45:00,80.6,60.3,29.79,WNW,297,9.6,132.1,50,0.00,,---,0.00,VWS V14.01,2013-06-26 15:45:00,
2013-06-26 11:50:00,80.5,59.5,29.79,NNW,347,5.7,132.1,49,0.00,,---,0.00,VWS V14.01,2013-06-26 15:50:00,
2013-06-26 11:55:00,81.1,60.4,29.79,WNW,297,11.7,132.1,49,0.00,,---,0.00,VWS V14.01,2013-06-26 15:55:00,
2013-06-26 11:59:00,80.5,60.0,29.79,NW,322,7.0,132.1,50,0.00,,---,0.00,VWS V14.01,2013-06-26 15:59:00,
2013-06-26 12:04:00,81.6,62.0,29.79,South,173,1.2,132.1,51,0.00,,---,0.00,VWS V14.01,2013-06-26 16:04:00,
2013-06-26 12:09:00,81.5,62.1,29.79,West,277,8.5,132.1,52,0.00,,---,0.00,VWS V14.01,2013-06-26 16:09:00,
2013-06-26 12:14:00,82.4,62.2,29.79,NNE,22,3.0,132.1,51,0.00,,---,0.00,VWS V14.01,2013-06-26 16:14:00,
2013-06-26 12:19:00,81.4,59.8,29.79,SE,136,2.4,132.1,48,0.00,,---,0.00,VWS V14.01,2013-06-26 16:19:00,
2013-06-26 12:24:00,81.8,60.0,29.79,WNW,285,6.5,132.1,48,0.00,,---,0.00,VWS V14.01,2013-06-26 16:24:00,
2013-06-26 12:29:00,81.9,60.2,29.79,West,263,7.1,132.1,48,0.00,,---,0.00,VWS V14.01,2013-06-26 16:29:00,
2013-06-26 12:34:00,82.6,60.1,29.79,WNW,302,5.4,132.1,47,0.00,,---,0.00,VWS V14.01,2013-06-26 16:34:00,
2013-06-26 12:39:00,82.7,62.0,29.79,SSW,208,1.7,132.1,50,0.00,,---,0.00,VWS V14.01,2013-06-26 16:39:00,
2013-06-26 12:44:00,82.0,58.7,29.79,WNW,301,9.0,132.1,45,0.00,,---,0.00,VWS V14.01,2013-06-26 16:44:00,
2013-06-26 12:49:00,83.2,61.2,29.79,WNW,288,1.9,132.1,48,0.00,,---,0.00,VWS V14.01,2013-06-26 16:49:00,
2013-06-26 12:54:00,82.4,59.8,29.79,NW,308,6.0,132.1,46,0.00,,---,0.00,VWS V14.01,2013-06-26 16:54:00,
2013-06-26 12:59:00,83.4,61.2,29.79,North,353,4.9,132.1,47,0.00,,---,0.00,VWS V14.01,2013-06-26 16:59:00,
2013-06-26 13:04:00,81.4,60.7,29.80,West,269,4.6,132.1,49,0.00,,---,0.00,VWS V14.01,2013-06-26 17:04:00,
2013-06-26 13:09:00,82.1,60.4,29.80,WNW,288,9.0,132.1,48,0.00,,---,0.00,VWS V14.01,2013-06-26 17:09:00,
2013-06-26 13:14:00,81.8,59.7,29.80,WNW,284,7.6,132.1,47,0.00,,---,0.00,VWS V14.01,2013-06-26 17:14:00,
2013-06-26 13:19:00,82.8,60.0,29.79,West,281,7.1,132.1,46,0.00,,---,0.00,VWS V14.01,2013-06-26 17:19:00,
2013-06-26 13:24:00,83.0,60.3,29.79,NW,322,5.4,132.1,46,0.00,,---,0.00,VWS V14.01,2013-06-26 17:24:00,
2013-06-26 13:29:00,82.5,59.5,29.79,SSW,211,8.2,132.1,46,0.00,,---,0.00,VWS V14.01,2013-06-26 17:29:00,
2013-06-26 13:34:00,83.0,59.1,29.79,West,264,6.8,132.1,44,0.00,,---,0.00,VWS V14.01,2013-06-26 17:34:00,
2013-06-26 13:39:00,83.0,59.9,29.79,SW,225,2.9,132.1,46,0.00,,---,0.00,VWS V14.01,2013-06-26 17:39:00,
2013-06-26 13:44:00,83.4,60.1,29.79,North,7,11.7,132.1,45,0.00,,---,0.00,VWS V14.01,2013-06-26 17:44:00,
2013-06-26 13:49:00,84.4,62.0,29.79,SW,229,5.1,132.1,47,0.00,,---,0.00,VWS V14.01,2013-06-26 17:49:00,
2013-06-26 13:54:00,83.4,61.7,29.79,WSW,256,4.5,132.1,48,0.00,,---,0.00,VWS V14.01,2013-06-26 17:54:00,
2013-06-26 13:59:00,83.5,60.8,29.78,NW,307,8.0,132.1,46,0.00,,---,0.00,VWS V14.01,2013-06-26 17:59:00,
2013-06-26 14:04:00,83.8,60.2,29.78,NW,307,5.5,132.1,45,0.00,,---,0.00,VWS V14.01,2013-06-26 18:04:00,
2013-06-26 14:09:00,83.8,59.2,29.78,NW,307,6.3,132.1,43,0.00,,---,0.00,VWS V14.01,2013-06-26 18:09:00,
2013-06-26 14:14:00,84.0,60.4,29.78,NNW,336,2.2,132.1,45,0.00,,---,0.00,VWS V14.01,2013-06-26 18:14:00,
2013-06-26 14:19:00,84.1,59.5,29.78,WSW,257,8.3,132.1,43,0.00,,---,0.00,VWS V14.01,2013-06-26 18:19:00,
2013-06-26 14:24:00,84.5,60.0,29.78,NNW,336,5.4,132.1,44,0.00,,---,0.00,VWS V14.01,2013-06-26 18:24:00,
2013-06-26 14:29:00,83.4,58.3,29.78,NW,309,8.8,132.1,43,0.00,,---,0.00,VWS V14.01,2013-06-26 18:29:00,
2013-06-26 14:34:00,83.7,59.2,29.78,WNW,302,5.7,132.1,44,0.00,,---,0.00,VWS V14.01,2013-06-26 18:34:00,
2013-06-26 14:39:00,83.9,59.7,29.78,NE,49,5.7,132.1,44,0.00,,---,0.00,VWS V14.01,2013-06-26 18:39:00,
2013-06-26 14:44:00,83.4,57.1,29.77,North,359,5.8,132.1,41,0.00,,---,0.00,VWS V14.01,2013-06-26 18:44:00,
2013-06-26 14:49:00,83.8,56.5,29.78,East,84,0.0,132.1,39,0.00,,---,0.00,VWS V14.01,2013-06-26 18:49:00,
2013-06-26 14:54:00,84.4,59.7,29.77,NE,56,4.3,132.1,43,0.00,,---,0.00,VWS V14.01,2013-06-26 18:54:00,
2013-06-26 14:59:00,84.8,58.8,29.77,NNE,30,4.3,132.1,42,0.00,,---,0.00,VWS V14.01,2013-06-26 18:59:00,
2013-06-26 15:04:00,84.8,57.9,29.77,NW,319,4.7,132.1,40,0.00,,---,0.00,VWS V14.01,2013-06-26 19:04:00,
2013-06-26 15:09:00,85.0,57.8,29.77,WNW,285,3.0,132.1,40,0.00,,---,0.00,VWS V14.01,2013-06-26 19:09:00,
2013-06-26 15:14:00,84.4,58.8,29.76,WNW,300,3.2,132.1,42,0.00,,---,0.00,VWS V14.01,2013-06-26 19:14:00,
2013-06-26 15:19:00,85.7,59.9,29.76,WNW,290,7.3,132.1,42,0.00,,---,0.00,VWS V14.01,2013-06-26 19:19:00,
2013-06-26 15:24:00,85.8,61.1,29.76,West,274,1.9,132.1,44,0.00,,---,0.00,VWS V14.01,2013-06-26 19:24:00,
2013-06-26 15:29:00,84.8,58.5,29.76,NNW,342,6.3,132.1,41,0.00,,---,0.00,VWS V14.01,2013-06-26 19:29:00,
2013-06-26 15:34:00,84.2,58.4,29.76,WNW,298,6.1,132.1,42,0.00,,---,0.00,VWS V14.01,2013-06-26 19:34:00,
2013-06-26 15:39:00,84.9,59.7,29.76,West,276,2.7,132.1,43,0.00,,---,0.00,VWS V14.01,2013-06-26 19:39:00,
2013-06-26 15:44:00,85.6,60.8,29.75,SW,215,3.5,132.1,43,99.99,,---,0.00,VWS V14.01,2013-06-26 19:44:00,
2013-06-26 15:49:00,85.3,60.8,29.75,North,349,1.0,132.1,44,0.00,,---,0.00,VWS V14.01,2013-06-26 19:49:00,
2013-06-26 15:54:00,86.1,61.5,29.74,South,173,0.6,132.1,44,0.00,,---,0.00,VWS V14.01,2013-06-26 19:54:00,
2013-06-26 15:59:00,86.2,60.7,29.74,SW,235,5.3,132.1,42,0.00,,---,0.00,VWS V14.01,2013-06-26 19:59:00,
2013-06-26 16:04:00,85.7,62.2,29.74,NNW,347,0.8,132.1,46,0.00,,---,0.00,VWS V14.01,2013-06-26 20:04:00,
2013-06-26 16:09:00,86.1,62.2,29.74,North,352,5.4,132.1,45,0.00,,---,0.00,VWS V14.01,2013-06-26 20:09:00,
2013-06-26 16:14:00,85.4,61.1,29.74,NW,308,6.0,132.1,44,0.00,,---,0.00,VWS V14.01,2013-06-26 20:14:00,
2013-06-26 16:19:00,85.3,61.4,29.74,NW,323,3.5,132.1,45,0.00,,---,0.00,VWS V14.01,2013-06-26 20:19:00,
2013-06-26 16:24:00,85.2,62.3,29.74,WNW,284,7.4,132.1,46,0.00,,---,0.00,VWS V14.01,2013-06-26 20:24:00,
2013-06-26 16:29:00,86.4,63.5,29.74,SW,233,1.9,132.1,46,0.00,,---,0.00,VWS V14.01,2013-06-26 20:29:00,
2013-06-26 16:34:00,85.5,61.5,29.73,West,269,6.9,132.1,45,0.00,,---,0.00,VWS V14.01,2013-06-26 20:34:00,
2013-06-26 16:39:00,86.8,63.7,29.73,NW,304,1.2,132.1,46,0.00,,---,0.00,VWS V14.01,2013-06-26 20:39:00,
2013-06-26 16:44:00,86.4,62.6,29.73,West,264,6.3,132.1,45,0.00,,---,0.00,VWS V14.01,2013-06-26 20:44:00,
2013-06-26 16:49:00,86.2,62.4,29.73,SW,219,2.4,132.1,45,0.00,,---,0.00,VWS V14.01,2013-06-26 20:49:00,
2013-06-26 16:54:00,86.3,61.7,29.72,West,262,5.2,132.1,44,0.00,,---,0.00,VWS V14.01,2013-06-26 20:54:00,
2013-06-26 16:59:00,85.0,60.8,29.72,WNW,291,8.5,132.1,44,0.00,,---,0.00,VWS V14.01,2013-06-26 20:59:00,
2013-06-26 17:04:00,84.8,61.5,29.72,NNW,335,6.3,132.1,46,0.00,,---,0.00,VWS V14.01,2013-06-26 21:04:00,
2013-06-26 17:09:00,86.2,63.7,29.73,NNW,342,0.0,132.1,47,0.00,,---,0.00,VWS V14.01,2013-06-26 21:09:00,
2013-06-26 17:14:00,85.6,63.3,29.72,NW,316,5.7,132.1,47,0.00,,---,0.00,VWS V14.01,2013-06-26 21:14:00,
2013-06-26 17:19:00,85.6,63.5,29.72,NW,308,2.0,132.1,48,0.00,,---,0.00,VWS V14.01,2013-06-26 21:19:00,
2013-06-26 17:24:00,84.4,62.5,29.72,North,359,3.9,132.1,48,0.00,,---,0.00,VWS V14.01,2013-06-26 21:24:00,
2013-06-26 17:29:00,84.5,62.9,29.72,South,191,1.7,132.1,48,0.00,,---,0.00,VWS V14.01,2013-06-26 21:29:00,
2013-06-26 17:34:00,85.0,63.4,29.72,West,266,4.0,132.1,48,0.00,,---,0.00,VWS V14.01,2013-06-26 21:34:00,
2013-06-26 17:39:00,84.9,63.5,29.72,WSW,248,3.8,132.1,49,0.00,,---,0.00,VWS V14.01,2013-06-26 21:39:00,
2013-06-26 17:44:00,83.8,62.9,29.72,SSW,205,0.7,132.1,50,0.00,,---,0.00,VWS V14.01,2013-06-26 21:44:00,
2013-06-26 17:49:00,84.5,63.7,29.72,WSW,253,2.4,132.1,50,0.00,,---,0.00,VWS V14.01,2013-06-26 21:49:00,
2013-06-26 17:54:00,85.3,64.3,29.72,SW,221,2.6,132.1,50,0.00,,---,0.00,VWS V14.01,2013-06-26 21:54:00,
2013-06-26 17:59:00,84.5,63.8,29.72,WNW,284,2.3,132.1,50,0.00,,---,0.00,VWS V14.01,2013-06-26 21:59:00,
2013-06-26 18:04:00,85.2,64.9,29.72,WNW,300,2.9,132.1,51,0.00,,---,0.00,VWS V14.01,2013-06-26 22:04:00,
2013-06-26 18:09:00,85.3,65.2,29.72,SW,231,1.2,132.1,51,0.00,,---,0.00,VWS V14.01,2013-06-26 22:09:00,
2013-06-26 18:14:00,83.6,63.8,29.72,North,359,4.6,132.1,51,99.99,,---,0.00,VWS V14.01,2013-06-26 22:14:00,
2013-06-26 18:19:00,84.6,64.7,29.73,WNW,298,0.0,132.1,51,0.00,,---,0.00,VWS V14.01,2013-06-26 22:19:00,
2013-06-26 18:24:00,84.0,64.6,29.73,West,266,2.9,132.1,52,0.00,,---,0.00,VWS V14.01,2013-06-26 22:24:00,
2013-06-26 18:29:00,83.8,65.2,29.73,NW,322,3.4,132.1,54,0.00,,---,0.00,VWS V14.01,2013-06-26 22:29:00,
2013-06-26 18:34:00,82.9,65.3,29.73,SW,225,5.3,132.1,55,0.00,,---,0.00,VWS V14.01,2013-06-26 22:34:00,
2013-06-26 18:39:00,83.2,66.1,29.73,East,90,1.1,132.1,56,99.99,,---,0.00,VWS V14.01,2013-06-26 22:39:00,
2013-06-26 18:44:00,82.8,66.2,29.73,WSW,250,2.2,132.1,57,0.00,,---,0.00,VWS V14.01,2013-06-26 22:44:00,
2013-06-26 18:49:00,82.2,65.9,29.72,East,86,0.6,132.1,58,0.00,,---,0.00,VWS V14.01,2013-06-26 22:49:00,
2013-06-26 18:54:00,82.6,67.2,29.73,SSE,167,8.2,132.1,60,0.00,,---,0.00,VWS V14.01,2013-06-26 22:54:00,
2013-06-26 18:59:00,81.2,67.3,29.73,South,177,3.7,5.6,63,0.00,,---,0.00,VWS V14.01,2013-06-26 22:59:00,
2013-06-26 19:04:00,81.8,68.3,29.73,WSW,240,2.3,2.9,64,74.33,,---,0.00,VWS V14.01,2013-06-26 23:04:00,
2013-06-26 19:09:00,80.8,68.0,29.73,SSE,149,0.0,0.7,65,0.00,,---,0.00,VWS V14.01,2013-06-26 23:09:00,
2013-06-26 19:14:00,80.7,69.4,29.73,NNE,28,3.4,4.1,69,0.00,,---,0.00,VWS V14.01,2013-06-26 23:14:00,
2013-06-26 19:19:00,77.8,70.4,29.74,NNE,21,14.7,14.8,78,0.00,,---,0.00,VWS V14.01,2013-06-26 23:19:00,
2013-06-26 19:24:00,77.9,66.0,29.73,NNW,339,15.1,28.1,67,0.00,,---,0.00,VWS V14.01,2013-06-26 23:24:00,
2013-06-26 19:29:00,74.7,64.3,29.74,NW,316,8.9,15.5,70,0.00,,---,0.00,VWS V14.01,2013-06-26 23:29:00,
2013-06-26 19:34:00,75.3,63.6,29.74,NNE,14,5.0,6.6,67,0.00,,---,0.00,VWS V14.01,2013-06-26 23:34:00,
2013-06-26 19:39:00,75.2,64.4,29.74,NNE,32,0.7,2.3,69,0.00,,---,0.00,VWS V14.01,2013-06-26 23:39:00,
2013-06-26 19:44:00,74.5,64.9,29.74,ESE,111,4.2,4.3,72,0.00,,---,0.00,VWS V14.01,2013-06-26 23:44:00,
2013-06-26 19:49:00,74.4,66.7,29.75,NE,55,3.3,4.2,77,0.00,,---,0.00,VWS V14.01,2013-06-26 23:49:00,
2013-06-26 19:54:00,73.5,68.3,29.76,NE,35,6.7,7.3,84,0.00,,---,0.00,VWS V14.01,2013-06-26 23:54:00,
2013-06-26 19:59:00,72.2,67.8,29.77,NE,42,3.5,7.6,86,0.00,,---,0.00,VWS V14.01,2013-06-26 23:59:00,
2013-06-26 20:04:00,72.4,68.5,29.77,NNE,21,4.5,9.8,88,0.00,,---,0.00,VWS V14.01,2013-06-27 00:04:00,
2013-06-26 20:09:00,71.7,68.6,29.76,ENE,63,7.7,9.5,90,0.00,,---,0.00,VWS V14.01,2013-06-27 00:09:00,
2013-06-26 20:14:00,71.3,68.9,29.76,ENE,72,2.1,5.9,92,0.00,,---,0.00,VWS V14.01,2013-06-27 00:14:00,
2013-06-26 20:19:00,70.7,68.3,29.76,SE,124,2.1,6.5,92,0.00,,---,0.00,VWS V14.01,2013-06-27 00:19:00,
2013-06-26 20:23:00,70.8,68.6,29.76,SE,127,1.2,1.9,93,0.00,,---,0.00,VWS V14.01,2013-06-27 00:23:00,
2013-06-26 20:28:00,71.5,69.3,29.76,SSE,149,2.1,2.4,93,0.00,,---,0.00,VWS V14.01,2013-06-27 00:28:00,
2013-06-26 20:33:00,71.1,69.5,29.76,ESE,108,4.8,4.9,95,0.00,,---,0.00,VWS V14.01,2013-06-27 00:33:00,
2013-06-26 20:38:00,71.0,69.4,29.75,NNW,338,1.0,1.0,95,0.00,,---,0.00,VWS V14.01,2013-06-27 00:38:00,
2013-06-26 20:43:00,70.3,69.1,29.76,North,357,2.8,3.7,96,0.00,,---,0.00,VWS V14.01,2013-06-27 00:43:00,
2013-06-26 20:48:00,71.5,70.2,29.76,NW,319,0.0,0.0,96,22.98,,---,0.00,VWS V14.01,2013-06-27 00:48:00,
2013-06-26 20:53:00,70.3,69.0,29.76,NNE,30,1.2,1.2,96,0.00,,---,0.00,VWS V14.01,2013-06-27 00:53:00,
2013-06-26 20:58:00,71.3,70.1,29.77,NNE,27,0.0,0.4,96,0.00,,---,0.00,VWS V14.01,2013-06-27 00:58:00,
2013-06-26 21:03:00,71.2,70.0,29.77,NNE,17,0.8,1.1,96,0.00,,---,0.00,VWS V14.01,2013-06-27 01:03:00,
2013-06-26 21:08:00,71.3,70.2,29.77,NW,304,2.8,6.7,96,0.00,,---,0.00,VWS V14.01,2013-06-27 01:08:00,
2013-06-26 21:13:00,70.8,69.7,29.77,NNW,328,4.0,5.2,96,0.00,,---,0.00,VWS V14.01,2013-06-27 01:13:00,
2013-06-26 21:18:00,71.5,70.5,29.77,WSW,252,0.0,1.9,96,0.00,,---,0.00,VWS V14.01,2013-06-27 01:18:00,
2013-06-26 21:19:00,70.9,69.9,29.78,WSW,252,0.0,1.9,96,0.00,,---,0.00,VWS V14.01,2013-06-27 01:19:00,
2013-06-26 21:24:00,71.0,70.3,29.76,NNW,332,0.0,0.0,98,0.00,,---,0.00,VWS V14.01,2013-06-27 01:24:00,
2013-06-26 21:29:00,71.3,70.7,29.76,NNW,332,0.0,0.0,98,0.00,,---,0.00,VWS V14.01,2013-06-27 01:29:00,
2013-06-26 21:34:00,71.5,70.8,29.75,NNW,332,0.0,0.0,98,0.00,,---,0.00,VWS V14.01,2013-06-27 01:34:00,
2013-06-26 21:39:00,71.5,70.8,29.74,NNW,332,0.0,0.0,98,0.00,,---,0.00,VWS V14.01,2013-06-27 01:39:00,
2013-06-26 21:44:00,71.4,70.7,29.74,NNW,332,0.0,0.0,98,0.00,,---,0.00,VWS V14.01,2013-06-27 01:44:00,
2013-06-26 21:49:00,72.3,71.7,29.74,NNW,332,0.0,0.0,98,0.00,,---,0.00,VWS V14.01,2013-06-27 01:49:00,
2013-06-26 21:54:00,71.7,71.2,29.75,NNW,332,0.0,0.0,98,0.00,,---,0.00,VWS V14.01,2013-06-27 01:54:00,
2013-06-26 21:59:00,71.5,71.1,29.75,NNW,332,0.0,0.0,98,0.00,,---,0.00,VWS V14.01,2013-06-27 01:59:00,
2013-06-26 22:04:00,71.0,70.6,29.76,NNW,332,0.0,0.0,99,0.00,,---,0.00,VWS V14.01,2013-06-27 02:04:00,
2013-06-26 22:09:00,71.2,70.9,29.76,NNW,332,0.0,0.0,99,0.00,,---,0.00,VWS V14.01,2013-06-27 02:09:00,
2013-06-26 22:14:00,71.8,71.5,29.76,NNW,332,0.0,0.0,99,0.00,,---,0.00,VWS V14.01,2013-06-27 02:14:00,
2013-06-26 22:19:00,71.0,70.8,29.76,ESE,105,0.0,0.0,99,0.00,,---,0.00,VWS V14.01,2013-06-27 02:19:00,
2013-06-26 22:23:00,71.3,71.2,29.77,NNE,13,0.9,0.9,100,0.00,,---,0.00,VWS V14.01,2013-06-27 02:23:00,
2013-06-26 22:28:00,71.0,70.9,29.77,NNE,13,0.0,0.0,100,0.00,,---,0.00,VWS V14.01,2013-06-27 02:28:00,
2013-06-26 22:33:00,70.8,70.6,29.77,West,262,1.6,2.9,99,0.00,,---,0.00,VWS V14.01,2013-06-27 02:33:00,
2013-06-26 22:38:00,71.4,71.2,29.77,SSW,210,3.6,4.3,99,0.00,,---,0.00,VWS V14.01,2013-06-27 02:38:00,
2013-06-26 22:43:00,71.0,71.0,29.78,SSW,204,6.4,8.2,100,0.00,,---,0.00,VWS V14.01,2013-06-27 02:43:00,
2013-06-26 22:48:00,70.6,70.6,29.77,South,177,4.8,7.4,100,10.82,,---,0.00,VWS V14.01,2013-06-27 02:48:00,
2013-06-26 22:53:00,71.5,71.5,29.77,SW,218,3.4,3.4,100,0.00,,---,0.00,VWS V14.01,2013-06-27 02:53:00,
2013-06-26 22:58:00,71.5,71.5,29.77,SSW,202,4.0,4.0,100,0.00,,---,0.00,VWS V14.01,2013-06-27 02:58:00,
2013-06-26 23:03:00,71.7,71.7,29.77,SW,214,3.7,5.4,100,0.00,,---,0.00,VWS V14.01,2013-06-27 03:03:00,
2013-06-26 23:08:00,71.5,71.5,29.76,South,172,5.7,6.0,100,0.00,,---,0.00,VWS V14.01,2013-06-27 03:08:00,
2013-06-26 23:13:00,70.8,70.8,29.76,WSW,248,4.0,5.7,100,0.00,,---,0.00,VWS V14.01,2013-06-27 03:13:00,
2013-06-26 23:18:00,71.3,71.3,29.76,SSE,149,3.4,4.5,100,0.00,,---,0.00,VWS V14.01,2013-06-27 03:18:00,
2013-06-26 23:23:00,71.4,71.4,29.76,South,173,5.5,7.4,100,0.00,,---,0.00,VWS V14.01,2013-06-27 03:23:00,
2013-06-26 23:28:00,71.2,71.2,29.76,North,359,0.0,5.6,100,0.00,,---,0.00,VWS V14.01,2013-06-27 03:28:00,
2013-06-26 23:33:00,71.5,71.5,29.75,North,359,7.6,7.6,100,0.00,,---,0.00,VWS V14.01,2013-06-27 03:33:00,
2013-06-26 23:38:00,70.8,70.8,29.76,South,177,3.7,4.2,100,0.00,,---,0.00,VWS V14.01,2013-06-27 03:38:00,
2013-06-26 23:43:00,70.7,70.7,29.76,SSW,194,0.0,1.6,100,0.00,,---,0.00,VWS V14.01,2013-06-27 03:43:00,
2013-06-26 23:48:00,70.8,70.8,29.76,SSW,194,0.0,0.0,100,0.00,,---,0.00,VWS V14.01,2013-06-27 03:48:00,
2013-06-26 23:53:00,71.6,71.6,29.76,SSW,194,0.0,0.0,100,0.00,,---,0.00,VWS V14.01,2013-06-27 03:53:00,
2013-06-26 23:58:00,71.5,71.5,29.76,SSW,194,0.0,0.0,100,0.00,,---,0.00,VWS V14.01,2013-06-27 03:58:00,